N8AMF Weather Reports


time (UTC)temp
F
wind
direction
speed
knots
gust
knots
rain 1hr
in
rain 24hr
in
rain mn
in
humidity
%
barometer
mb
20260503211650 64 215 3.5 9.6 0.00 0.00 0.00 36 1011.0
20260503211145 62 223 2.6 11.3 0.00 0.00 0.00 36 1011.1
20260503210641 64 216 3.5 6.1 0.00 0.00 0.00 35 1011.1
20260503210138 63 217 4.3 11.3 0.00 0.00 0.00 34 1011.3
20260503205634 62 219 4.3 12.2 0.00 0.00 0.00 36 1011.2
20260503205130 63 223 4.3 7.8 0.00 0.00 0.00 36 1011.2
20260503204627 62 191 3.5 9.6 0.00 0.00 0.00 36 1011.3
20260503204125 62 97 4.3 12.2 0.00 0.00 0.00 37 1011.3
20260503203621 62 225 5.2 12.2 0.00 0.00 0.00 38 1011.3
20260503203119 61 213 1.7 6.1 0.00 0.00 0.00 39 1011.2
20260503202616 61 208 3.5 7.8 0.00 0.00 0.00 38 1011.3
20260503202114 62 211 3.5 6.1 0.00 0.00 0.00 38 1011.2
20260503201612 62 218 3.5 9.6 0.00 0.00 0.00 37 1011.5
20260503201109 61 203 3.5 4.3 0.00 0.00 0.00 38 1011.5
20260503200605 61 201 1.7 6.1 0.00 0.00 0.00 38 1011.7
20260503195559 64 200 2.6 10.4 0.00 0.00 0.00 37 1011.5
20260503195056 63 222 7.8 19.1 0.00 0.00 0.00 34 1011.6
20260503194553 62 212 4.3 8.7 0.00 0.00 0.00 38 1011.7
20260503194053 63 223 3.5 9.6 0.00 0.00 0.00 37 1012.0
20260503193550 63 206 3.5 8.7 0.00 0.00 0.00 40 1012.1
20260503193045 63 204 2.6 10.4 0.00 0.00 0.00 36 1012.1
20260503192541 62 195 0.0 7.8 0.00 0.00 0.00 37 1012.2
20260503192037 61 227 4.3 7.8 0.00 0.00 0.00 37 1012.2
20260503191534 62 147 2.6 6.1 0.00 0.00 0.00 39 1012.2
20260503191031 62 212 4.3 6.1 0.00 0.00 0.00 37 1012.5
20260503190528 62 197 3.5 13.0 0.00 0.00 0.00 36 1012.4
20260503190025 63 216 4.3 9.6 0.00 0.00 0.00 37 1012.5
20260503185521 61 207 1.7 5.2 0.00 0.00 0.00 40 1012.5
20260503185020 63 201 2.6 9.6 0.00 0.00 0.00 37 1012.5
20260503184517 62 195 4.3 8.7 0.00 0.00 0.00 37 1012.6
20260503184013 62 216 0.0 8.7 0.00 0.00 0.00 39 1012.5
20260503183510 61 201 1.7 7.8 0.00 0.00 0.00 38 1012.6
20260503183007 63 224 4.3 7.0 0.00 0.00 0.00 37 1012.6
20260503182506 62 216 6.1 10.4 0.00 0.00 0.00 38 1012.7
20260503182004 62 284 2.6 7.0 0.00 0.00 0.00 37 1012.9
20260503181500 62 186 1.7 13.0 0.00 0.00 0.00 38 1012.9
20260503180956 61 224 1.7 7.8 0.00 0.00 0.00 38 1013.1
20260503180454 61 202 1.7 6.1 0.00 0.00 0.00 38 1013.1
20260503175951 61 239 0.9 11.3 0.00 0.00 0.00 39 1013.2
20260503175449 62 226 5.2 8.7 0.00 0.00 0.00 38 1013.0
20260503174944 62 133 1.7 13.0 0.00 0.00 0.00 37 1013.3
20260503174443 62 226 2.6 7.8 0.00 0.00 0.00 41 1013.3
20260503173943 62 218 3.5 6.1 0.00 0.00 0.00 38 1013.2
20260503173440 62 204 4.3 6.1 0.00 0.00 0.00 40 1013.2
20260503172937 62 179 2.6 9.6 0.00 0.00 0.00 41 1013.7
20260503172434 62 217 4.3 9.6 0.00 0.00 0.00 41 1013.6
20260503171930 61 192 1.7 16.5 0.00 0.00 0.00 40 1013.8
20260503171427 61 6 3.5 9.6 0.00 0.00 0.00 43 1013.9
20260503170925 62 234 5.2 7.0 0.00 0.00 0.00 42 1013.8
20260503170421 61 202 5.2 7.8 0.00 0.00 0.00 41 1013.8
20260503150813 57 216 4.3 10.4 0.00 0.00 0.00 41 1014.8
20260503150309 56 145 2.6 13.0 0.00 0.00 0.00 44 1014.9
20260503140234 53 149 4.3 7.0 0.00 0.00 0.00 46 1015.0
20260503131203 48 201 0.9 3.5 0.00 0.00 0.00 53 1015.6
20260503130700 47 192 2.6 5.2 0.00 0.00 0.00 54 1015.7
20260503130158 47 181 3.5 6.1 0.00 0.00 0.00 57 1015.8
20260503120123 41 165 1.7 3.5 0.00 0.00 0.00 71 1015.6
20260503110550 37 106 0.0 1.7 0.00 0.00 0.00 77 1015.6
20260503090437 37 91 0.9 2.6 0.00 0.00 0.00 78 1015.3
20260503081404 37 20 0.9 2.6 0.00 0.00 0.00 79 1015.5
20260503080901 37 72 1.7 2.6 0.00 0.00 0.00 79 1015.5
20260503080358 37 81 2.6 2.6 0.00 0.00 0.00 79 1015.4
20260503072834 37 98 0.0 2.6 0.00 0.00 0.00 81 1015.3
20260503072331 37 89 0.0 1.7 0.00 0.00 0.00 81 1015.3
20260503071827 37 180 0.0 2.6 0.00 0.00 0.00 81 1015.4
20260503071325 37 231 0.0 1.7 0.00 0.00 0.00 81 1015.4
20260503070821 37 76 0.9 2.6 0.00 0.00 0.00 81 1015.3
20260503070319 37 188 1.7 2.6 0.00 0.00 0.00 82 1015.2
20260503060244 37 49 0.0 1.7 0.00 0.00 0.00 86 1015.7
20260503054731 37 138 1.7 2.6 0.00 0.00 0.00 86 1015.7
20260503054228 38 80 0.9 1.7 0.00 0.00 0.00 86 1015.7
20260503053726 38 150 1.7 2.6 0.00 0.00 0.00 86 1015.7
20260503053225 38 103 0.9 1.7 0.00 0.00 0.00 86 1015.7
20260503052720 38 65 0.0 1.7 0.00 0.00 0.00 86 1015.7
20260503052217 38 88 0.0 2.6 0.00 0.00 0.00 86 1015.9
20260503051712 38 106 1.7 2.6 0.00 0.00 0.00 86 1015.8
20260503051210 38 91 0.9 1.7 0.00 0.00 0.00 85 1015.9
20260503050707 38 89 0.0 1.7 0.00 0.00 0.00 85 1015.8
20260503050203 38 111 0.9 2.6 0.00 0.00 0.00 84 1015.7
20260503045701 38 89 0.0 2.6 0.00 0.00 0.00 84 1015.7
20260503045158 38 112 1.7 2.6 0.00 0.00 0.00 82 1015.8
20260503044654 38 80 0.9 1.7 0.00 0.00 0.00 81 1015.8
20260503044152 38 182 0.9 2.6 0.00 0.00 0.00 80 1015.9
20260503043648 38 109 1.7 1.7 0.00 0.00 0.00 80 1015.7
20260503043146 39 102 0.9 2.6 0.00 0.00 0.00 80 1015.7
20260503042642 39 63 0.9 1.7 0.00 0.00 0.00 79 1015.9
20260503042138 39 112 1.7 3.5 0.00 0.00 0.00 79 1015.9
20260503041635 40 97 2.6 2.6 0.00 0.00 0.00 79 1015.7
20260503041133 40 115 0.0 1.7 0.00 0.00 0.00 79 1015.8
20260503040630 40 101 0.9 2.6 0.00 0.00 0.00 78 1016.1
20260503040127 40 148 0.9 2.6 0.00 0.00 0.00 78 1016.2
20260503035623 40 86 0.0 1.7 0.00 0.16 0.16 78 1016.1
20260503035121 41 44 0.0 1.7 0.00 0.16 0.16 78 1016.0
20260503034618 41 102 0.0 1.7 0.00 0.16 0.16 77 1015.9
20260503034116 41 60 0.0 1.7 0.00 0.16 0.16 77 1015.8
20260503033613 42 155 0.0 1.7 0.00 0.16 0.16 76 1016.2
20260503033110 42 190 0.0 1.7 0.00 0.16 0.16 76 1016.2
20260503032608 42 76 0.0 1.7 0.00 0.16 0.16 76 1016.2
20260503032107 42 160 0.0 1.7 0.00 0.16 0.16 76 1016.2
20260503031604 42 69 0.0 2.6 0.00 0.16 0.16 76 1016.1
20260503031101 42 183 0.9 1.7 0.00 0.16 0.16 76 1016.1
20260503030557 42 147 0.0 2.6 0.00 0.16 0.16 76 1015.9
20260503030054 42 122 0.0 1.7 0.00 0.16 0.16 76 1016.3
20260503025551 42 187 0.9 1.7 0.00 0.16 0.16 76 1016.2
20260503025049 42 163 0.0 4.3 0.00 0.16 0.16 76 1016.4
20260503024544 42 168 0.9 2.6 0.00 0.16 0.16 76 1016.2
20260503024042 42 151 1.7 3.5 0.00 0.16 0.16 75 1016.2
20260503023538 42 171 1.7 1.7 0.00 0.16 0.16 75 1016.4
20260503023036 42 180 0.0 2.6 0.00 0.16 0.16 74 1016.3
20260503022532 42 145 0.9 3.5 0.00 0.16 0.16 74 1016.5
20260503022027 42 177 0.9 1.7 0.00 0.16 0.16 74 1016.3
20260503021524 43 191 0.0 2.6 0.00 0.16 0.16 73 1016.4
20260503021021 43 188 0.0 1.7 0.00 0.16 0.16 73 1016.4
20260503020518 43 135 0.0 1.7 0.00 0.16 0.16 72 1016.3
20260503020015 43 136 0.9 1.7 0.00 0.16 0.16 72 1016.4
20260503015511 43 120 0.0 2.6 0.00 0.16 0.16 72 1016.3
20260503015008 43 134 1.7 2.6 0.00 0.16 0.16 72 1016.4
20260503014504 43 74 0.0 1.7 0.00 0.16 0.16 71 1016.4
20260503014003 43 124 0.0 1.7 0.00 0.16 0.16 71 1016.2
20260503013459 43 122 2.6 4.3 0.00 0.16 0.16 72 1016.2
20260503012956 43 151 0.0 1.7 0.00 0.16 0.16 71 1016.3
20260503012455 43 49 0.9 1.7 0.00 0.16 0.16 70 1016.2
20260503011950 43 124 0.0 1.7 0.00 0.16 0.16 69 1016.1
20260503011447 43 89 0.9 1.7 0.00 0.16 0.16 68 1016.0
20260503010944 43 163 0.0 1.7 0.00 0.16 0.16 68 1016.2
20260503010441 43 172 0.0 1.7 0.00 0.16 0.16 66 1016.1
20260503005938 44 154 0.0 1.7 0.00 0.16 0.16 67 1016.2
20260503005436 44 169 1.7 1.7 0.00 0.16 0.16 68 1016.1
20260503004932 43 127 0.0 1.7 0.00 0.16 0.16 68 1016.0
20260503004429 44 110 0.0 1.7 0.00 0.16 0.16 67 1016.1
20260503003927 44 124 0.0 1.7 0.00 0.16 0.16 66 1016.0
20260503003423 44 135 0.0 1.7 0.00 0.16 0.16 62 1015.9
20260503002921 44 180 0.0 2.6 0.00 0.16 0.16 56 1015.9
20260503002418 45 215 1.7 3.5 0.00 0.16 0.16 55 1015.9
20260503001914 44 5 1.7 3.5 0.00 0.16 0.16 57 1016.0
20260503001410 44 92 0.9 2.6 0.00 0.16 0.16 61 1015.9
20260503000908 45 141 0.0 1.7 0.00 0.16 0.16 60 1016.0
20260503000407 45 214 1.7 3.5 0.00 0.16 0.16 57 1015.8
20260502235902 45 176 0.9 3.5 0.00 0.16 0.16 57 1015.8
20260502235359 45 228 1.7 2.6 0.00 0.16 0.16 56 1015.9
20260502234856 45 223 3.5 4.3 0.00 0.16 0.16 57 1015.8
20260502234353 45 332 2.6 3.5 0.00 0.16 0.16 57 1015.8
20260502233849 45 214 2.6 3.5 0.00 0.16 0.16 56 1015.7
20260502233345 45 181 1.7 3.5 0.00 0.16 0.16 55 1015.8
20260502232843 45 84 0.0 1.7 0.00 0.16 0.16 56 1015.7
20260502232339 45 72 0.0 4.3 0.00 0.16 0.16 55 1015.9
20260502231835 45 337 1.7 5.2 0.00 0.16 0.16 58 1015.8
20260502231334 45 143 0.0 7.8 0.00 0.16 0.16 54 1016.0
20260502230831 46 63 0.0 3.5 0.00 0.16 0.16 56 1015.8
20260502230329 46 30 2.6 5.2 0.00 0.16 0.16 57 1016.0
20260502225826 46 341 1.7 3.5 0.00 0.16 0.16 54 1016.0
20260502225322 46 217 1.7 4.3 0.00 0.16 0.16 54 1016.0
20260502224819 45 326 1.7 5.2 0.00 0.16 0.16 55 1016.0
20260502224315 45 211 2.6 3.5 0.00 0.16 0.16 54 1015.9
20260502223814 46 209 0.9 7.0 0.00 0.16 0.16 54 1015.9
20260502223311 46 232 2.6 3.5 0.00 0.16 0.16 55 1016.0
20260502222809 46 193 0.9 4.3 0.00 0.16 0.16 53 1016.1
20260502222306 46 202 3.5 6.1 0.00 0.16 0.16 52 1016.0
20260502221801 47 340 2.6 7.8 0.00 0.16 0.16 53 1016.0
20260502221258 48 201 5.2 7.8 0.00 0.16 0.16 48 1016.3
20260502220755 47 18 1.7 6.1 0.00 0.16 0.16 55 1016.1
20260502220251 48 246 4.3 7.8 0.00 0.16 0.16 49 1016.3
20260502215747 48 344 2.6 7.0 0.00 0.16 0.16 52 1016.2
20260502215245 48 41 4.3 7.8 0.00 0.16 0.16 52 1016.2
20260502214742 48 61 3.5 7.0 0.00 0.16 0.16 57 1016.1
20260502214239 47 52 1.7 5.2 0.00 0.16 0.16 52 1016.1
20260502213736 47 20 5.2 7.0 0.00 0.16 0.16 53 1016.1
20260502213233 46 48 1.7 4.3 0.00 0.16 0.16 56 1016.1
20260502212732 47 12 2.6 4.3 0.00 0.16 0.16 55 1016.4
20260502212230 48 345 4.3 9.6 0.00 0.16 0.16 54 1016.1